Location: Unspecified
(0.0000°N, 0.0000°E)
Time: 14:18:47
(UTC+00:00)

A-11 Canister half - Pass Details

Date: 28 May 2026
Orbit: 1515 x 1685 km, 47.2° (Epoch: 8 June)

Event Time Altitude Azimuth Distance (km) Brightness Sun altitude
Rises 01:17:24 0° 343° (NNW) 4,642 11.7 -61.0°
Enters shadow 01:19:03 - 347° (NNW) 4,187 11.5 -60.7°
Reaches altitude 10° 01:21:07 10° 355° (N) 3,662 - -60.4°
Maximum altitude 01:28:26 26° 49° (NE) 2,627 - -59.1°
Drops below altitude 10° 01:35:49 10° 102° (ESE) 3,719 - -57.8°
Exits shadow 01:36:47 - 105° (ESE) 3,964 11.3 -57.6°
Sets 01:39:34 0° 114° (ESE) 4,727 11.7 -57.1°
